Location: Brahman Valley
(40.6513°N, 111.8855°W)
Time: 22:42:27
(UTC+00:00)

Vanguard 2 - Pass Details

Date: 14 May 2021
Orbit: 552 x 2937 km, 32.9° (Epoch: 14 June)

Event Time Altitude Azimuth Distance (km) Brightness Sun altitude
Rises 16:30:57 0° 272° (W) 5,410 11.5 47.1°
Reaches altitude 10° 16:34:09 10° 268° (W) 4,681 11.2 47.7°
Maximum altitude 16:47:52 56° 196° (SSW) 3,125 11.4 50.2°
Drops below altitude 10° 17:05:02 10° 125° (SE) 5,725 12.8 53.2°
Sets 17:09:28 0° 121° (ESE) 6,642 12.9 53.9°
